<?xml version="1.0" encoding="UTF-8" standalone="no" ?>
<gpx xmlns="http://www.topografix.com/GPX/1/1" xmlns:xsi="http://www.w3.org/2001/XMLSchema-instance" xsi:schemaLocation="http://www.topografix.com/GPX/1/1 http://www.topografix.com/GPX/1/1/gpx.xsd" version="1.1" creator="VisuGPX - https://www.visugpx.com">
  <metadata>
    <name>Davrinche20101</name>
    <desc><![CDATA[la partie 1 des repérages]]></desc>
  </metadata>
  <trk>
    <name><![CDATA[--Volvic-- OR-5358190:ser-fr01-vtt-l3]]></name>
    <trkseg>
      <trkpt lat="45.8713" lon="3.02706">
        <ele>586</ele>
        <time>2015-10-17T12:37:47Z</time>
      </trkpt>
      <trkpt lat="45.8712" lon="3.02678">
        <ele>590</ele>
        <time>2015-10-17T12:39:47Z</time>
      </trkpt>
      <trkpt lat="45.87145" lon="3.02629">
        <ele>594</ele>
        <time>2015-10-17T12:41:47Z</time>
      </trkpt>
      <trkpt lat="45.87151" lon="3.02564">
        <ele>599</ele>
        <time>2015-10-17T12:43:47Z</time>
      </trkpt>
      <trkpt lat="45.87144" lon="3.02508">
        <ele>605</ele>
        <time>2015-10-17T12:45:47Z</time>
      </trkpt>
      <trkpt lat="45.87153" lon="3.02438">
        <ele>611</ele>
        <time>2015-10-17T12:47:47Z</time>
      </trkpt>
      <trkpt lat="45.87193" lon="3.02393">
        <ele>613</ele>
        <time>2015-10-17T12:49:47Z</time>
      </trkpt>
      <trkpt lat="45.87225" lon="3.02347">
        <ele>615</ele>
        <time>2015-10-17T12:51:47Z</time>
      </trkpt>
      <trkpt lat="45.87244" lon="3.023">
        <ele>617</ele>
        <time>2015-10-17T12:53:47Z</time>
      </trkpt>
      <trkpt lat="45.87236" lon="3.02242">
        <ele>620</ele>
        <time>2015-10-17T12:55:47Z</time>
      </trkpt>
      <trkpt lat="45.87235" lon="3.02197">
        <ele>620</ele>
        <time>2015-10-17T12:57:47Z</time>
      </trkpt>
      <trkpt lat="45.8723" lon="3.02144">
        <ele>620</ele>
        <time>2015-10-17T12:59:47Z</time>
      </trkpt>
      <trkpt lat="45.87225" lon="3.02092">
        <ele>621</ele>
        <time>2015-10-17T13:01:47Z</time>
      </trkpt>
      <trkpt lat="45.8722" lon="3.02043">
        <ele>622</ele>
        <time>2015-10-17T13:03:47Z</time>
      </trkpt>
      <trkpt lat="45.87217" lon="3.02">
        <ele>624</ele>
        <time>2015-10-17T13:05:47Z</time>
      </trkpt>
      <trkpt lat="45.87178" lon="3.02">
        <ele>625</ele>
        <time>2015-10-17T13:07:47Z</time>
      </trkpt>
      <trkpt lat="45.87153" lon="3.01957">
        <ele>629</ele>
        <time>2015-10-17T13:09:47Z</time>
      </trkpt>
      <trkpt lat="45.87138" lon="3.01916">
        <ele>632</ele>
        <time>2015-10-17T13:11:47Z</time>
      </trkpt>
      <trkpt lat="45.8712" lon="3.01901">
        <ele>635</ele>
        <time>2015-10-17T13:13:47Z</time>
      </trkpt>
      <trkpt lat="45.87115" lon="3.01848">
        <ele>638</ele>
        <time>2015-10-17T13:15:47Z</time>
      </trkpt>
      <trkpt lat="45.87121" lon="3.01805">
        <ele>640</ele>
        <time>2015-10-17T13:17:47Z</time>
      </trkpt>
      <trkpt lat="45.87126" lon="3.01753">
        <ele>644</ele>
        <time>2015-10-17T13:19:47Z</time>
      </trkpt>
      <trkpt lat="45.87142" lon="3.01719">
        <ele>648</ele>
        <time>2015-10-17T13:21:47Z</time>
      </trkpt>
      <trkpt lat="45.87166" lon="3.01751">
        <ele>646</ele>
        <time>2015-10-17T13:23:47Z</time>
      </trkpt>
      <trkpt lat="45.8718" lon="3.01794">
        <ele>645</ele>
        <time>2015-10-17T13:25:47Z</time>
      </trkpt>
      <trkpt lat="45.87195" lon="3.01839">
        <ele>643</ele>
        <time>2015-10-17T13:27:47Z</time>
      </trkpt>
      <trkpt lat="45.87213" lon="3.01873">
        <ele>640</ele>
        <time>2015-10-17T13:29:47Z</time>
      </trkpt>
      <trkpt lat="45.8726" lon="3.01899">
        <ele>641</ele>
        <time>2015-10-17T13:31:47Z</time>
      </trkpt>
      <trkpt lat="45.87305" lon="3.01933">
        <ele>641</ele>
        <time>2015-10-17T13:33:47Z</time>
      </trkpt>
      <trkpt lat="45.87341" lon="3.01946">
        <ele>643</ele>
        <time>2015-10-17T13:35:47Z</time>
      </trkpt>
      <trkpt lat="45.87386" lon="3.01972">
        <ele>637</ele>
        <time>2015-10-17T13:37:47Z</time>
      </trkpt>
      <trkpt lat="45.87443" lon="3.01985">
        <ele>633</ele>
        <time>2015-10-17T13:39:47Z</time>
      </trkpt>
      <trkpt lat="45.87487" lon="3.01968">
        <ele>634</ele>
        <time>2015-10-17T13:41:47Z</time>
      </trkpt>
      <trkpt lat="45.8754" lon="3.01936">
        <ele>631</ele>
        <time>2015-10-17T13:43:47Z</time>
      </trkpt>
      <trkpt lat="45.87574" lon="3.01901">
        <ele>628</ele>
        <time>2015-10-17T13:45:47Z</time>
      </trkpt>
      <trkpt lat="45.87617" lon="3.01873">
        <ele>626</ele>
        <time>2015-10-17T13:47:47Z</time>
      </trkpt>
      <trkpt lat="45.87655" lon="3.01869">
        <ele>621</ele>
        <time>2015-10-17T13:49:47Z</time>
      </trkpt>
      <trkpt lat="45.87688" lon="3.0192">
        <ele>620</ele>
        <time>2015-10-17T13:51:47Z</time>
      </trkpt>
      <trkpt lat="45.87689" lon="3.0188">
        <ele>625</ele>
        <time>2015-10-17T13:53:47Z</time>
      </trkpt>
      <trkpt lat="45.87694" lon="3.01835">
        <ele>631</ele>
        <time>2015-10-17T13:55:47Z</time>
      </trkpt>
      <trkpt lat="45.87706" lon="3.01787">
        <ele>639</ele>
        <time>2015-10-17T13:57:47Z</time>
      </trkpt>
      <trkpt lat="45.87718" lon="3.01745">
        <ele>644</ele>
        <time>2015-10-17T13:59:47Z</time>
      </trkpt>
      <trkpt lat="45.87735" lon="3.0171">
        <ele>645</ele>
        <time>2015-10-17T14:01:47Z</time>
      </trkpt>
      <trkpt lat="45.87764" lon="3.01678">
        <ele>647</ele>
        <time>2015-10-17T14:03:47Z</time>
      </trkpt>
      <trkpt lat="45.87782" lon="3.01642">
        <ele>650</ele>
        <time>2015-10-17T14:05:47Z</time>
      </trkpt>
      <trkpt lat="45.87797" lon="3.01603">
        <ele>652</ele>
        <time>2015-10-17T14:07:47Z</time>
      </trkpt>
      <trkpt lat="45.87843" lon="3.01592">
        <ele>661</ele>
        <time>2015-10-17T14:09:47Z</time>
      </trkpt>
      <trkpt lat="45.87889" lon="3.01616">
        <ele>667</ele>
        <time>2015-10-17T14:11:47Z</time>
      </trkpt>
      <trkpt lat="45.87945" lon="3.01624">
        <ele>671</ele>
        <time>2015-10-17T14:13:47Z</time>
      </trkpt>
      <trkpt lat="45.87974" lon="3.0162">
        <ele>673</ele>
        <time>2015-10-17T14:15:47Z</time>
      </trkpt>
      <trkpt lat="45.87973" lon="3.01584">
        <ele>678</ele>
        <time>2015-10-17T14:17:47Z</time>
      </trkpt>
      <trkpt lat="45.87958" lon="3.01558">
        <ele>680</ele>
        <time>2015-10-17T14:19:47Z</time>
      </trkpt>
      <trkpt lat="45.8794" lon="3.01543">
        <ele>679</ele>
        <time>2015-10-17T14:21:47Z</time>
      </trkpt>
      <trkpt lat="45.87924" lon="3.01521">
        <ele>679</ele>
        <time>2015-10-17T14:23:47Z</time>
      </trkpt>
      <trkpt lat="45.87928" lon="3.01472">
        <ele>686</ele>
        <time>2015-10-17T14:25:47Z</time>
      </trkpt>
      <trkpt lat="45.87922" lon="3.01448">
        <ele>688</ele>
        <time>2015-10-17T14:27:47Z</time>
      </trkpt>
      <trkpt lat="45.87922" lon="3.01416">
        <ele>692</ele>
        <time>2015-10-17T14:29:47Z</time>
      </trkpt>
      <trkpt lat="45.87927" lon="3.01358">
        <ele>699</ele>
        <time>2015-10-17T14:31:47Z</time>
      </trkpt>
      <trkpt lat="45.8793" lon="3.01311">
        <ele>703</ele>
        <time>2015-10-17T14:33:47Z</time>
      </trkpt>
      <trkpt lat="45.87952" lon="3.01262">
        <ele>707</ele>
        <time>2015-10-17T14:35:47Z</time>
      </trkpt>
      <trkpt lat="45.87919" lon="3.01219">
        <ele>708</ele>
        <time>2015-10-17T14:37:47Z</time>
      </trkpt>
      <trkpt lat="45.87879" lon="3.01234">
        <ele>704</ele>
        <time>2015-10-17T14:39:47Z</time>
      </trkpt>
      <trkpt lat="45.87853" lon="3.01219">
        <ele>704</ele>
        <time>2015-10-17T14:41:47Z</time>
      </trkpt>
      <trkpt lat="45.87825" lon="3.01184">
        <ele>704</ele>
        <time>2015-10-17T14:43:47Z</time>
      </trkpt>
      <trkpt lat="45.87809" lon="3.01167">
        <ele>703</ele>
        <time>2015-10-17T14:45:47Z</time>
      </trkpt>
      <trkpt lat="45.87792" lon="3.01131">
        <ele>702</ele>
        <time>2015-10-17T14:47:47Z</time>
      </trkpt>
      <trkpt lat="45.87764" lon="3.01094">
        <ele>700</ele>
        <time>2015-10-17T14:49:47Z</time>
      </trkpt>
      <trkpt lat="45.87743" lon="3.01062">
        <ele>698</ele>
        <time>2015-10-17T14:51:47Z</time>
      </trkpt>
      <trkpt lat="45.87713" lon="3.01028">
        <ele>697</ele>
        <time>2015-10-17T14:53:47Z</time>
      </trkpt>
      <trkpt lat="45.87698" lon="3.01">
        <ele>698</ele>
        <time>2015-10-17T14:55:47Z</time>
      </trkpt>
      <trkpt lat="45.8768" lon="3.00981">
        <ele>697</ele>
        <time>2015-10-17T14:57:47Z</time>
      </trkpt>
      <trkpt lat="45.87653" lon="3.00987">
        <ele>697</ele>
        <time>2015-10-17T14:59:47Z</time>
      </trkpt>
      <trkpt lat="45.87628" lon="3.00994">
        <ele>697</ele>
        <time>2015-10-17T15:01:47Z</time>
      </trkpt>
      <trkpt lat="45.87602" lon="3.01002">
        <ele>698</ele>
        <time>2015-10-17T15:03:47Z</time>
      </trkpt>
      <trkpt lat="45.87577" lon="3.01011">
        <ele>697</ele>
        <time>2015-10-17T15:05:47Z</time>
      </trkpt>
      <trkpt lat="45.87534" lon="3.01011">
        <ele>695</ele>
        <time>2015-10-17T15:07:47Z</time>
      </trkpt>
      <trkpt lat="45.8751" lon="3.01021">
        <ele>693</ele>
        <time>2015-10-17T15:09:47Z</time>
      </trkpt>
      <trkpt lat="45.87489" lon="3.01049">
        <ele>690</ele>
        <time>2015-10-17T15:11:47Z</time>
      </trkpt>
      <trkpt lat="45.87471" lon="3.01088">
        <ele>688</ele>
        <time>2015-10-17T15:13:47Z</time>
      </trkpt>
      <trkpt lat="45.87449" lon="3.01127">
        <ele>689</ele>
        <time>2015-10-17T15:15:47Z</time>
      </trkpt>
      <trkpt lat="45.87429" lon="3.01161">
        <ele>691</ele>
        <time>2015-10-17T15:17:47Z</time>
      </trkpt>
      <trkpt lat="45.87408" lon="3.01163">
        <ele>690</ele>
        <time>2015-10-17T15:19:47Z</time>
      </trkpt>
      <trkpt lat="45.8738" lon="3.01152">
        <ele>685</ele>
        <time>2015-10-17T15:21:47Z</time>
      </trkpt>
      <trkpt lat="45.8736" lon="3.01114">
        <ele>683</ele>
        <time>2015-10-17T15:23:47Z</time>
      </trkpt>
      <trkpt lat="45.87346" lon="3.01071">
        <ele>682</ele>
        <time>2015-10-17T15:25:47Z</time>
      </trkpt>
      <trkpt lat="45.87325" lon="3.01092">
        <ele>680</ele>
        <time>2015-10-17T15:27:47Z</time>
      </trkpt>
      <trkpt lat="45.87281" lon="3.01122">
        <ele>675</ele>
        <time>2015-10-17T15:29:47Z</time>
      </trkpt>
      <trkpt lat="45.87266" lon="3.01148">
        <ele>672</ele>
        <time>2015-10-17T15:31:47Z</time>
      </trkpt>
      <trkpt lat="45.87242" lon="3.01169">
        <ele>669</ele>
        <time>2015-10-17T15:33:47Z</time>
      </trkpt>
      <trkpt lat="45.87208" lon="3.01178">
        <ele>669</ele>
        <time>2015-10-17T15:35:47Z</time>
      </trkpt>
      <trkpt lat="45.87186" lon="3.01178">
        <ele>669</ele>
        <time>2015-10-17T15:37:47Z</time>
      </trkpt>
      <trkpt lat="45.87168" lon="3.01124">
        <ele>671</ele>
        <time>2015-10-17T15:39:47Z</time>
      </trkpt>
      <trkpt lat="45.87162" lon="3.01054">
        <ele>675</ele>
        <time>2015-10-17T15:41:47Z</time>
      </trkpt>
      <trkpt lat="45.87147" lon="3.00978">
        <ele>679</ele>
        <time>2015-10-17T15:43:47Z</time>
      </trkpt>
      <trkpt lat="45.87145" lon="3.0091">
        <ele>683</ele>
        <time>2015-10-17T15:45:47Z</time>
      </trkpt>
      <trkpt lat="45.8713" lon="3.00856">
        <ele>685</ele>
        <time>2015-10-17T15:47:47Z</time>
      </trkpt>
      <trkpt lat="45.8712" lon="3.00811">
        <ele>688</ele>
        <time>2015-10-17T15:49:47Z</time>
      </trkpt>
      <trkpt lat="45.87117" lon="3.00777">
        <ele>690</ele>
        <time>2015-10-17T15:51:47Z</time>
      </trkpt>
      <trkpt lat="45.87095" lon="3.0076">
        <ele>691</ele>
        <time>2015-10-17T15:53:47Z</time>
      </trkpt>
      <trkpt lat="45.87053" lon="3.00764">
        <ele>693</ele>
        <time>2015-10-17T15:55:47Z</time>
      </trkpt>
      <trkpt lat="45.87041" lon="3.00702">
        <ele>699</ele>
        <time>2015-10-17T15:57:47Z</time>
      </trkpt>
      <trkpt lat="45.87036" lon="3.00667">
        <ele>702</ele>
        <time>2015-10-17T15:59:47Z</time>
      </trkpt>
      <trkpt lat="45.87041" lon="3.00614">
        <ele>707</ele>
        <time>2015-10-17T16:01:47Z</time>
      </trkpt>
      <trkpt lat="45.87096" lon="3.00569">
        <ele>709</ele>
        <time>2015-10-17T16:03:47Z</time>
      </trkpt>
      <trkpt lat="45.87087" lon="3.00513">
        <ele>714</ele>
        <time>2015-10-17T16:05:47Z</time>
      </trkpt>
      <trkpt lat="45.87087" lon="3.00457">
        <ele>717</ele>
        <time>2015-10-17T16:07:47Z</time>
      </trkpt>
      <trkpt lat="45.87087" lon="3.00382">
        <ele>718</ele>
        <time>2015-10-17T16:09:47Z</time>
      </trkpt>
      <trkpt lat="45.87086" lon="3.0032">
        <ele>718</ele>
        <time>2015-10-17T16:11:47Z</time>
      </trkpt>
      <trkpt lat="45.87087" lon="3.00255">
        <ele>720</ele>
        <time>2015-10-17T16:13:47Z</time>
      </trkpt>
      <trkpt lat="45.8708" lon="3.002">
        <ele>723</ele>
        <time>2015-10-17T16:15:47Z</time>
      </trkpt>
      <trkpt lat="45.87084" lon="3.00163">
        <ele>724</ele>
        <time>2015-10-17T16:17:47Z</time>
      </trkpt>
      <trkpt lat="45.8708" lon="3.00077">
        <ele>727</ele>
        <time>2015-10-17T16:19:47Z</time>
      </trkpt>
      <trkpt lat="45.8708" lon="3">
        <ele>733</ele>
        <time>2015-10-17T16:21:47Z</time>
      </trkpt>
      <trkpt lat="45.8708" lon="2.99934">
        <ele>737</ele>
        <time>2015-10-17T16:23:47Z</time>
      </trkpt>
      <trkpt lat="45.8708" lon="2.99876">
        <ele>741</ele>
        <time>2015-10-17T16:25:47Z</time>
      </trkpt>
      <trkpt lat="45.87081" lon="2.99848">
        <ele>743</ele>
        <time>2015-10-17T16:27:47Z</time>
      </trkpt>
      <trkpt lat="45.86989" lon="2.99914">
        <ele>743</ele>
        <time>2015-10-17T16:29:47Z</time>
      </trkpt>
      <trkpt lat="45.86913" lon="2.99917">
        <ele>746</ele>
        <time>2015-10-17T16:31:47Z</time>
      </trkpt>
      <trkpt lat="45.8689" lon="2.99931">
        <ele>747</ele>
        <time>2015-10-17T16:33:47Z</time>
      </trkpt>
      <trkpt lat="45.86841" lon="3.00043">
        <ele>745</ele>
        <time>2015-10-17T16:35:47Z</time>
      </trkpt>
      <trkpt lat="45.86828" lon="3.00127">
        <ele>742</ele>
        <time>2015-10-17T16:37:47Z</time>
      </trkpt>
      <trkpt lat="45.86793" lon="3.00215">
        <ele>743</ele>
        <time>2015-10-17T16:39:47Z</time>
      </trkpt>
      <trkpt lat="45.86721" lon="3.00379">
        <ele>741</ele>
        <time>2015-10-17T16:41:47Z</time>
      </trkpt>
      <trkpt lat="45.8669" lon="3.00422">
        <ele>740</ele>
        <time>2015-10-17T16:43:47Z</time>
      </trkpt>
      <trkpt lat="45.86627" lon="3.00496">
        <ele>743</ele>
        <time>2015-10-17T16:45:47Z</time>
      </trkpt>
      <trkpt lat="45.86623" lon="3.00556">
        <ele>740</ele>
        <time>2015-10-17T16:47:47Z</time>
      </trkpt>
      <trkpt lat="45.86607" lon="3.00556">
        <ele>742</ele>
        <time>2015-10-17T16:49:47Z</time>
      </trkpt>
      <trkpt lat="45.86508" lon="3.00493">
        <ele>755</ele>
        <time>2015-10-17T16:51:47Z</time>
      </trkpt>
      <trkpt lat="45.86407" lon="3.00428">
        <ele>760</ele>
        <time>2015-10-17T16:53:47Z</time>
      </trkpt>
      <trkpt lat="45.86359" lon="3.00345">
        <ele>766</ele>
        <time>2015-10-17T16:55:47Z</time>
      </trkpt>
      <trkpt lat="45.86294" lon="3.0027">
        <ele>775</ele>
        <time>2015-10-17T16:57:47Z</time>
      </trkpt>
      <trkpt lat="45.86252" lon="3.00182">
        <ele>783</ele>
        <time>2015-10-17T16:59:47Z</time>
      </trkpt>
      <trkpt lat="45.86229" lon="3.0012">
        <ele>787</ele>
        <time>2015-10-17T17:01:47Z</time>
      </trkpt>
      <trkpt lat="45.86257" lon="3.00092">
        <ele>786</ele>
        <time>2015-10-17T17:03:47Z</time>
      </trkpt>
      <trkpt lat="45.86249" lon="3.0003">
        <ele>795</ele>
        <time>2015-10-17T17:05:47Z</time>
      </trkpt>
      <trkpt lat="45.86274" lon="2.99889">
        <ele>814</ele>
        <time>2015-10-17T17:07:47Z</time>
      </trkpt>
      <trkpt lat="45.86299" lon="2.99755">
        <ele>847</ele>
        <time>2015-10-17T17:09:47Z</time>
      </trkpt>
      <trkpt lat="45.86324" lon="2.9971">
        <ele>856</ele>
        <time>2015-10-17T17:11:47Z</time>
      </trkpt>
      <trkpt lat="45.86402" lon="2.99732">
        <ele>851</ele>
        <time>2015-10-17T17:13:47Z</time>
      </trkpt>
      <trkpt lat="45.86415" lon="2.99655">
        <ele>866</ele>
        <time>2015-10-17T17:15:47Z</time>
      </trkpt>
      <trkpt lat="45.86465" lon="2.99662">
        <ele>863</ele>
        <time>2015-10-17T17:17:47Z</time>
      </trkpt>
      <trkpt lat="45.86488" lon="2.99617">
        <ele>865</ele>
        <time>2015-10-17T17:19:47Z</time>
      </trkpt>
      <trkpt lat="45.86506" lon="2.99519">
        <ele>869</ele>
        <time>2015-10-17T17:21:47Z</time>
      </trkpt>
      <trkpt lat="45.86495" lon="2.99481">
        <ele>871</ele>
        <time>2015-10-17T17:23:47Z</time>
      </trkpt>
      <trkpt lat="45.86413" lon="2.99512">
        <ele>871</ele>
        <time>2015-10-17T17:25:47Z</time>
      </trkpt>
      <trkpt lat="45.86371" lon="2.99456">
        <ele>872</ele>
        <time>2015-10-17T17:27:47Z</time>
      </trkpt>
      <trkpt lat="45.86371" lon="2.99423">
        <ele>873</ele>
        <time>2015-10-17T17:29:47Z</time>
      </trkpt>
      <trkpt lat="45.86386" lon="2.99384">
        <ele>873</ele>
        <time>2015-10-17T17:31:47Z</time>
      </trkpt>
      <trkpt lat="45.86434" lon="2.99373">
        <ele>872</ele>
        <time>2015-10-17T17:33:47Z</time>
      </trkpt>
      <trkpt lat="45.86469" lon="2.99323">
        <ele>871</ele>
        <time>2015-10-17T17:35:47Z</time>
      </trkpt>
      <trkpt lat="45.86522" lon="2.99283">
        <ele>869</ele>
        <time>2015-10-17T17:37:47Z</time>
      </trkpt>
      <trkpt lat="45.86526" lon="2.99206">
        <ele>869</ele>
        <time>2015-10-17T17:39:47Z</time>
      </trkpt>
      <trkpt lat="45.86517" lon="2.9918">
        <ele>870</ele>
        <time>2015-10-17T17:41:47Z</time>
      </trkpt>
      <trkpt lat="45.8654" lon="2.99159">
        <ele>867</ele>
        <time>2015-10-17T17:43:47Z</time>
      </trkpt>
      <trkpt lat="45.8654" lon="2.99121">
        <ele>868</ele>
        <time>2015-10-17T17:45:47Z</time>
      </trkpt>
      <trkpt lat="45.8658" lon="2.99063">
        <ele>858</ele>
        <time>2015-10-17T17:47:47Z</time>
      </trkpt>
      <trkpt lat="45.86597" lon="2.99066">
        <ele>856</ele>
        <time>2015-10-17T17:49:47Z</time>
      </trkpt>
      <trkpt lat="45.86617" lon="2.98939">
        <ele>851</ele>
        <time>2015-10-17T17:51:47Z</time>
      </trkpt>
      <trkpt lat="45.86607" lon="2.98901">
        <ele>850</ele>
        <time>2015-10-17T17:53:47Z</time>
      </trkpt>
      <trkpt lat="45.86559" lon="2.98849">
        <ele>852</ele>
        <time>2015-10-17T17:55:47Z</time>
      </trkpt>
      <trkpt lat="45.86574" lon="2.98784">
        <ele>852</ele>
        <time>2015-10-17T17:57:47Z</time>
      </trkpt>
      <trkpt lat="45.86624" lon="2.98753">
        <ele>849</ele>
        <time>2015-10-17T17:59:47Z</time>
      </trkpt>
      <trkpt lat="45.8669" lon="2.98758">
        <ele>840</ele>
        <time>2015-10-17T18:01:47Z</time>
      </trkpt>
      <trkpt lat="45.86758" lon="2.9883">
        <ele>827</ele>
        <time>2015-10-17T18:03:47Z</time>
      </trkpt>
      <trkpt lat="45.86838" lon="2.98877">
        <ele>814</ele>
        <time>2015-10-17T18:05:47Z</time>
      </trkpt>
      <trkpt lat="45.86875" lon="2.98882">
        <ele>808</ele>
        <time>2015-10-17T18:07:47Z</time>
      </trkpt>
      <trkpt lat="45.86927" lon="2.98914">
        <ele>801</ele>
        <time>2015-10-17T18:09:47Z</time>
      </trkpt>
      <trkpt lat="45.86958" lon="2.98945">
        <ele>799</ele>
        <time>2015-10-17T18:11:47Z</time>
      </trkpt>
      <trkpt lat="45.87004" lon="2.99014">
        <ele>798</ele>
        <time>2015-10-17T18:13:47Z</time>
      </trkpt>
      <trkpt lat="45.8702" lon="2.99056">
        <ele>796</ele>
        <time>2015-10-17T18:15:47Z</time>
      </trkpt>
      <trkpt lat="45.87051" lon="2.99092">
        <ele>793</ele>
        <time>2015-10-17T18:17:47Z</time>
      </trkpt>
      <trkpt lat="45.87089" lon="2.99158">
        <ele>787</ele>
        <time>2015-10-17T18:19:47Z</time>
      </trkpt>
      <trkpt lat="45.87129" lon="2.9918">
        <ele>785</ele>
        <time>2015-10-17T18:21:47Z</time>
      </trkpt>
      <trkpt lat="45.87131" lon="2.99127">
        <ele>788</ele>
        <time>2015-10-17T18:23:47Z</time>
      </trkpt>
      <trkpt lat="45.8719" lon="2.99039">
        <ele>789</ele>
        <time>2015-10-17T18:25:47Z</time>
      </trkpt>
      <trkpt lat="45.8724" lon="2.99008">
        <ele>785</ele>
        <time>2015-10-17T18:27:47Z</time>
      </trkpt>
      <trkpt lat="45.8726" lon="2.99039">
        <ele>783</ele>
        <time>2015-10-17T18:29:47Z</time>
      </trkpt>
      <trkpt lat="45.87268" lon="2.99007">
        <ele>784</ele>
        <time>2015-10-17T18:31:47Z</time>
      </trkpt>
      <trkpt lat="45.87277" lon="2.98979">
        <ele>784</ele>
        <time>2015-10-17T18:33:47Z</time>
      </trkpt>
      <trkpt lat="45.87257" lon="2.98923">
        <ele>787</ele>
        <time>2015-10-17T18:35:47Z</time>
      </trkpt>
      <trkpt lat="45.87257" lon="2.98867">
        <ele>788</ele>
        <time>2015-10-17T18:37:47Z</time>
      </trkpt>
      <trkpt lat="45.87271" lon="2.98816">
        <ele>788</ele>
        <time>2015-10-17T18:39:47Z</time>
      </trkpt>
      <trkpt lat="45.87271" lon="2.98749">
        <ele>789</ele>
        <time>2015-10-17T18:41:47Z</time>
      </trkpt>
      <trkpt lat="45.87265" lon="2.98685">
        <ele>792</ele>
        <time>2015-10-17T18:43:47Z</time>
      </trkpt>
      <trkpt lat="45.87266" lon="2.98633">
        <ele>793</ele>
        <time>2015-10-17T18:45:47Z</time>
      </trkpt>
      <trkpt lat="45.87292" lon="2.98569">
        <ele>793</ele>
        <time>2015-10-17T18:47:47Z</time>
      </trkpt>
      <trkpt lat="45.87325" lon="2.98461">
        <ele>796</ele>
        <time>2015-10-17T18:49:47Z</time>
      </trkpt>
      <trkpt lat="45.87365" lon="2.98383">
        <ele>799</ele>
        <time>2015-10-17T18:51:47Z</time>
      </trkpt>
      <trkpt lat="45.87471" lon="2.98292">
        <ele>804</ele>
        <time>2015-10-17T18:53:47Z</time>
      </trkpt>
      <trkpt lat="45.87522" lon="2.98232">
        <ele>806</ele>
        <time>2015-10-17T18:55:47Z</time>
      </trkpt>
      <trkpt lat="45.87561" lon="2.98158">
        <ele>806</ele>
        <time>2015-10-17T18:57:47Z</time>
      </trkpt>
      <trkpt lat="45.87577" lon="2.98079">
        <ele>803</ele>
        <time>2015-10-17T18:59:47Z</time>
      </trkpt>
      <trkpt lat="45.87509" lon="2.97986">
        <ele>809</ele>
        <time>2015-10-17T19:01:47Z</time>
      </trkpt>
      <trkpt lat="45.87444" lon="2.97862">
        <ele>813</ele>
        <time>2015-10-17T19:03:47Z</time>
      </trkpt>
      <trkpt lat="45.87418" lon="2.97846">
        <ele>815</ele>
        <time>2015-10-17T19:05:47Z</time>
      </trkpt>
      <trkpt lat="45.87393" lon="2.97767">
        <ele>815</ele>
        <time>2015-10-17T19:07:47Z</time>
      </trkpt>
      <trkpt lat="45.87363" lon="2.97738">
        <ele>816</ele>
        <time>2015-10-17T19:09:47Z</time>
      </trkpt>
      <trkpt lat="45.87334" lon="2.97728">
        <ele>817</ele>
        <time>2015-10-17T19:11:47Z</time>
      </trkpt>
      <trkpt lat="45.87329" lon="2.97676">
        <ele>816</ele>
        <time>2015-10-17T19:13:47Z</time>
      </trkpt>
      <trkpt lat="45.87311" lon="2.97631">
        <ele>817</ele>
        <time>2015-10-17T19:15:47Z</time>
      </trkpt>
      <trkpt lat="45.87304" lon="2.9761">
        <ele>818</ele>
        <time>2015-10-17T19:17:47Z</time>
      </trkpt>
      <trkpt lat="45.87295" lon="2.97577">
        <ele>819</ele>
        <time>2015-10-17T19:19:47Z</time>
      </trkpt>
      <trkpt lat="45.87287" lon="2.9753">
        <ele>820</ele>
        <time>2015-10-17T19:21:47Z</time>
      </trkpt>
      <trkpt lat="45.87278" lon="2.97487">
        <ele>820</ele>
        <time>2015-10-17T19:23:47Z</time>
      </trkpt>
      <trkpt lat="45.87274" lon="2.97457">
        <ele>820</ele>
        <time>2015-10-17T19:25:47Z</time>
      </trkpt>
      <trkpt lat="45.87263" lon="2.97425">
        <ele>820</ele>
        <time>2015-10-17T19:27:47Z</time>
      </trkpt>
      <trkpt lat="45.87248" lon="2.97369">
        <ele>820</ele>
        <time>2015-10-17T19:29:47Z</time>
      </trkpt>
      <trkpt lat="45.87232" lon="2.97307">
        <ele>822</ele>
        <time>2015-10-17T19:31:47Z</time>
      </trkpt>
      <trkpt lat="45.8722" lon="2.97256">
        <ele>824</ele>
        <time>2015-10-17T19:33:47Z</time>
      </trkpt>
      <trkpt lat="45.87183" lon="2.97174">
        <ele>829</ele>
        <time>2015-10-17T19:35:47Z</time>
      </trkpt>
      <trkpt lat="45.87168" lon="2.9715">
        <ele>830</ele>
        <time>2015-10-17T19:37:47Z</time>
      </trkpt>
      <trkpt lat="45.87159" lon="2.97129">
        <ele>831</ele>
        <time>2015-10-17T19:39:47Z</time>
      </trkpt>
      <trkpt lat="45.87132" lon="2.97082">
        <ele>832</ele>
        <time>2015-10-17T19:41:47Z</time>
      </trkpt>
      <trkpt lat="45.87111" lon="2.97035">
        <ele>834</ele>
        <time>2015-10-17T19:43:47Z</time>
      </trkpt>
      <trkpt lat="45.87099" lon="2.9699">
        <ele>835</ele>
        <time>2015-10-17T19:45:47Z</time>
      </trkpt>
      <trkpt lat="45.87086" lon="2.96927">
        <ele>837</ele>
        <time>2015-10-17T19:47:47Z</time>
      </trkpt>
      <trkpt lat="45.87078" lon="2.96867">
        <ele>838</ele>
        <time>2015-10-17T19:49:47Z</time>
      </trkpt>
      <trkpt lat="45.87069" lon="2.96803">
        <ele>840</ele>
        <time>2015-10-17T19:51:47Z</time>
      </trkpt>
      <trkpt lat="45.87057" lon="2.96736">
        <ele>842</ele>
        <time>2015-10-17T19:53:47Z</time>
      </trkpt>
      <trkpt lat="45.87051" lon="2.96696">
        <ele>843</ele>
        <time>2015-10-17T19:55:47Z</time>
      </trkpt>
      <trkpt lat="45.87045" lon="2.96646">
        <ele>844</ele>
        <time>2015-10-17T19:57:47Z</time>
      </trkpt>
      <trkpt lat="45.87041" lon="2.96603">
        <ele>844</ele>
        <time>2015-10-17T19:59:47Z</time>
      </trkpt>
      <trkpt lat="45.87029" lon="2.96541">
        <ele>845</ele>
        <time>2015-10-17T20:01:47Z</time>
      </trkpt>
      <trkpt lat="45.87021" lon="2.96468">
        <ele>845</ele>
        <time>2015-10-17T20:03:47Z</time>
      </trkpt>
      <trkpt lat="45.87011" lon="2.96425">
        <ele>846</ele>
        <time>2015-10-17T20:05:47Z</time>
      </trkpt>
      <trkpt lat="45.87002" lon="2.9635">
        <ele>849</ele>
        <time>2015-10-17T20:07:47Z</time>
      </trkpt>
      <trkpt lat="45.86991" lon="2.9632">
        <ele>850</ele>
        <time>2015-10-17T20:09:47Z</time>
      </trkpt>
      <trkpt lat="45.86984" lon="2.96284">
        <ele>850</ele>
        <time>2015-10-17T20:11:47Z</time>
      </trkpt>
      <trkpt lat="45.86966" lon="2.96238">
        <ele>851</ele>
        <time>2015-10-17T20:13:47Z</time>
      </trkpt>
      <trkpt lat="45.86953" lon="2.96206">
        <ele>851</ele>
        <time>2015-10-17T20:15:47Z</time>
      </trkpt>
      <trkpt lat="45.86939" lon="2.96172">
        <ele>852</ele>
        <time>2015-10-17T20:17:47Z</time>
      </trkpt>
      <trkpt lat="45.86924" lon="2.96142">
        <ele>852</ele>
        <time>2015-10-17T20:19:47Z</time>
      </trkpt>
      <trkpt lat="45.86914" lon="2.9612">
        <ele>852</ele>
        <time>2015-10-17T20:21:47Z</time>
      </trkpt>
      <trkpt lat="45.869" lon="2.96095">
        <ele>852</ele>
        <time>2015-10-17T20:23:47Z</time>
      </trkpt>
      <trkpt lat="45.869" lon="2.96058">
        <ele>853</ele>
        <time>2015-10-17T20:25:47Z</time>
      </trkpt>
      <trkpt lat="45.86903" lon="2.96028">
        <ele>854</ele>
        <time>2015-10-17T20:27:47Z</time>
      </trkpt>
      <trkpt lat="45.8692" lon="2.95998">
        <ele>855</ele>
        <time>2015-10-17T20:29:47Z</time>
      </trkpt>
      <trkpt lat="45.86938" lon="2.95968">
        <ele>860</ele>
        <time>2015-10-17T20:31:47Z</time>
      </trkpt>
      <trkpt lat="45.87003" lon="2.95921">
        <ele>868</ele>
        <time>2015-10-17T20:33:47Z</time>
      </trkpt>
      <trkpt lat="45.87065" lon="2.95874">
        <ele>883</ele>
        <time>2015-10-17T20:35:47Z</time>
      </trkpt>
      <trkpt lat="45.87111" lon="2.95809">
        <ele>893</ele>
        <time>2015-10-17T20:37:47Z</time>
      </trkpt>
      <trkpt lat="45.87163" lon="2.95756">
        <ele>897</ele>
        <time>2015-10-17T20:39:47Z</time>
      </trkpt>
      <trkpt lat="45.87202" lon="2.95726">
        <ele>899</ele>
        <time>2015-10-17T20:41:47Z</time>
      </trkpt>
      <trkpt lat="45.87242" lon="2.95689">
        <ele>896</ele>
        <time>2015-10-17T20:43:47Z</time>
      </trkpt>
      <trkpt lat="45.87286" lon="2.95625">
        <ele>891</ele>
        <time>2015-10-17T20:45:47Z</time>
      </trkpt>
      <trkpt lat="45.87307" lon="2.95586">
        <ele>889</ele>
        <time>2015-10-17T20:47:47Z</time>
      </trkpt>
      <trkpt lat="45.8732" lon="2.95528">
        <ele>889</ele>
        <time>2015-10-17T20:49:47Z</time>
      </trkpt>
      <trkpt lat="45.87329" lon="2.95447">
        <ele>891</ele>
        <time>2015-10-17T20:51:47Z</time>
      </trkpt>
      <trkpt lat="45.87334" lon="2.95387">
        <ele>892</ele>
        <time>2015-10-17T20:53:47Z</time>
      </trkpt>
      <trkpt lat="45.87346" lon="2.95329">
        <ele>894</ele>
        <time>2015-10-17T20:55:47Z</time>
      </trkpt>
      <trkpt lat="45.8736" lon="2.95284">
        <ele>890</ele>
        <time>2015-10-17T20:57:47Z</time>
      </trkpt>
      <trkpt lat="45.87387" lon="2.95241">
        <ele>888</ele>
        <time>2015-10-17T20:59:47Z</time>
      </trkpt>
      <trkpt lat="45.87428" lon="2.952">
        <ele>887</ele>
        <time>2015-10-17T21:01:47Z</time>
      </trkpt>
      <trkpt lat="45.87495" lon="2.95166">
        <ele>887</ele>
        <time>2015-10-17T21:03:47Z</time>
      </trkpt>
      <trkpt lat="45.87511" lon="2.95125">
        <ele>884</ele>
        <time>2015-10-17T21:05:47Z</time>
      </trkpt>
      <trkpt lat="45.87544" lon="2.95088">
        <ele>880</ele>
        <time>2015-10-17T21:07:47Z</time>
      </trkpt>
      <trkpt lat="45.87583" lon="2.95084">
        <ele>877</ele>
        <time>2015-10-17T21:09:47Z</time>
      </trkpt>
      <trkpt lat="45.87611" lon="2.95121">
        <ele>876</ele>
        <time>2015-10-17T21:11:47Z</time>
      </trkpt>
      <trkpt lat="45.87652" lon="2.95166">
        <ele>877</ele>
        <time>2015-10-17T21:13:47Z</time>
      </trkpt>
      <trkpt lat="45.8765" lon="2.95112">
        <ele>870</ele>
        <time>2015-10-17T21:15:47Z</time>
      </trkpt>
      <trkpt lat="45.87683" lon="2.95073">
        <ele>864</ele>
        <time>2015-10-17T21:17:47Z</time>
      </trkpt>
      <trkpt lat="45.87709" lon="2.95035">
        <ele>866</ele>
        <time>2015-10-17T21:19:47Z</time>
      </trkpt>
      <trkpt lat="45.87712" lon="2.94998">
        <ele>866</ele>
        <time>2015-10-17T21:21:47Z</time>
      </trkpt>
      <trkpt lat="45.87707" lon="2.94945">
        <ele>866</ele>
        <time>2015-10-17T21:23:47Z</time>
      </trkpt>
      <trkpt lat="45.87698" lon="2.94902">
        <ele>865</ele>
        <time>2015-10-17T21:25:47Z</time>
      </trkpt>
      <trkpt lat="45.87689" lon="2.94829">
        <ele>858</ele>
        <time>2015-10-17T21:27:47Z</time>
      </trkpt>
      <trkpt lat="45.87691" lon="2.94788">
        <ele>854</ele>
        <time>2015-10-17T21:29:47Z</time>
      </trkpt>
      <trkpt lat="45.87683" lon="2.9476">
        <ele>852</ele>
        <time>2015-10-17T21:31:47Z</time>
      </trkpt>
      <trkpt lat="45.87723" lon="2.94719">
        <ele>841</ele>
        <time>2015-10-17T21:33:47Z</time>
      </trkpt>
      <trkpt lat="45.87801" lon="2.94659">
        <ele>836</ele>
        <time>2015-10-17T21:35:47Z</time>
      </trkpt>
      <trkpt lat="45.87852" lon="2.94636">
        <ele>835</ele>
        <time>2015-10-17T21:37:47Z</time>
      </trkpt>
      <trkpt lat="45.8791" lon="2.94616">
        <ele>834</ele>
        <time>2015-10-17T21:39:47Z</time>
      </trkpt>
      <trkpt lat="45.87954" lon="2.94578">
        <ele>831</ele>
        <time>2015-10-17T21:41:47Z</time>
      </trkpt>
      <trkpt lat="45.87988" lon="2.94541">
        <ele>830</ele>
        <time>2015-10-17T21:43:47Z</time>
      </trkpt>
      <trkpt lat="45.8804" lon="2.94485">
        <ele>828</ele>
        <time>2015-10-17T21:45:47Z</time>
      </trkpt>
      <trkpt lat="45.88049" lon="2.94436">
        <ele>827</ele>
        <time>2015-10-17T21:47:47Z</time>
      </trkpt>
      <trkpt lat="45.88018" lon="2.94393">
        <ele>830</ele>
        <time>2015-10-17T21:49:47Z</time>
      </trkpt>
      <trkpt lat="45.87991" lon="2.94363">
        <ele>832</ele>
        <time>2015-10-17T21:51:47Z</time>
      </trkpt>
      <trkpt lat="45.87971" lon="2.94339">
        <ele>834</ele>
        <time>2015-10-17T21:53:47Z</time>
      </trkpt>
      <trkpt lat="45.87945" lon="2.94303">
        <ele>834</ele>
        <time>2015-10-17T21:55:47Z</time>
      </trkpt>
      <trkpt lat="45.87907" lon="2.94292">
        <ele>835</ele>
        <time>2015-10-17T21:57:47Z</time>
      </trkpt>
      <trkpt lat="45.87909" lon="2.94254">
        <ele>833</ele>
        <time>2015-10-17T21:59:47Z</time>
      </trkpt>
      <trkpt lat="45.87922" lon="2.94221">
        <ele>834</ele>
        <time>2015-10-17T22:01:47Z</time>
      </trkpt>
      <trkpt lat="45.87894" lon="2.94151">
        <ele>834</ele>
        <time>2015-10-17T22:03:47Z</time>
      </trkpt>
      <trkpt lat="45.87889" lon="2.94103">
        <ele>836</ele>
        <time>2015-10-17T22:05:47Z</time>
      </trkpt>
      <trkpt lat="45.87882" lon="2.94052">
        <ele>838</ele>
        <time>2015-10-17T22:07:47Z</time>
      </trkpt>
      <trkpt lat="45.87815" lon="2.94011">
        <ele>837</ele>
        <time>2015-10-17T22:09:47Z</time>
      </trkpt>
      <trkpt lat="45.87782" lon="2.94003">
        <ele>838</ele>
        <time>2015-10-17T22:11:47Z</time>
      </trkpt>
      <trkpt lat="45.87725" lon="2.9396">
        <ele>844</ele>
        <time>2015-10-17T22:13:47Z</time>
      </trkpt>
      <trkpt lat="45.87692" lon="2.93949">
        <ele>847</ele>
        <time>2015-10-17T22:15:47Z</time>
      </trkpt>
      <trkpt lat="45.87649" lon="2.93943">
        <ele>848</ele>
        <time>2015-10-17T22:17:47Z</time>
      </trkpt>
      <trkpt lat="45.8761" lon="2.9393">
        <ele>848</ele>
        <time>2015-10-17T22:19:47Z</time>
      </trkpt>
      <trkpt lat="45.8758" lon="2.93915">
        <ele>849</ele>
        <time>2015-10-17T22:21:47Z</time>
      </trkpt>
      <trkpt lat="45.8755" lon="2.93981">
        <ele>847</ele>
        <time>2015-10-17T22:23:47Z</time>
      </trkpt>
      <trkpt lat="45.87544" lon="2.94028">
        <ele>848</ele>
        <time>2015-10-17T22:25:47Z</time>
      </trkpt>
      <trkpt lat="45.87549" lon="2.94101">
        <ele>849</ele>
        <time>2015-10-17T22:27:47Z</time>
      </trkpt>
      <trkpt lat="45.87567" lon="2.94185">
        <ele>850</ele>
        <time>2015-10-17T22:29:47Z</time>
      </trkpt>
      <trkpt lat="45.87556" lon="2.94236">
        <ele>851</ele>
        <time>2015-10-17T22:31:47Z</time>
      </trkpt>
      <trkpt lat="45.87541" lon="2.94288">
        <ele>852</ele>
        <time>2015-10-17T22:33:47Z</time>
      </trkpt>
      <trkpt lat="45.87532" lon="2.94329">
        <ele>852</ele>
        <time>2015-10-17T22:35:47Z</time>
      </trkpt>
      <trkpt lat="45.87501" lon="2.94378">
        <ele>855</ele>
        <time>2015-10-17T22:37:47Z</time>
      </trkpt>
      <trkpt lat="45.87489" lon="2.94404">
        <ele>856</ele>
        <time>2015-10-17T22:39:47Z</time>
      </trkpt>
      <trkpt lat="45.87453" lon="2.94468">
        <ele>860</ele>
        <time>2015-10-17T22:41:47Z</time>
      </trkpt>
      <trkpt lat="45.87434" lon="2.94488">
        <ele>862</ele>
        <time>2015-10-17T22:43:47Z</time>
      </trkpt>
      <trkpt lat="45.87411" lon="2.9453">
        <ele>866</ele>
        <time>2015-10-17T22:45:47Z</time>
      </trkpt>
      <trkpt lat="45.87395" lon="2.94556">
        <ele>869</ele>
        <time>2015-10-17T22:47:47Z</time>
      </trkpt>
      <trkpt lat="45.87354" lon="2.94623">
        <ele>876</ele>
        <time>2015-10-17T22:49:47Z</time>
      </trkpt>
      <trkpt lat="45.87337" lon="2.9467">
        <ele>879</ele>
        <time>2015-10-17T22:51:47Z</time>
      </trkpt>
      <trkpt lat="45.87323" lon="2.94711">
        <ele>879</ele>
        <time>2015-10-17T22:53:47Z</time>
      </trkpt>
      <trkpt lat="45.87322" lon="2.9476">
        <ele>879</ele>
        <time>2015-10-17T22:55:47Z</time>
      </trkpt>
      <trkpt lat="45.8731" lon="2.94807">
        <ele>879</ele>
        <time>2015-10-17T22:57:47Z</time>
      </trkpt>
      <trkpt lat="45.87299" lon="2.94852">
        <ele>879</ele>
        <time>2015-10-17T22:59:47Z</time>
      </trkpt>
      <trkpt lat="45.87286" lon="2.94893">
        <ele>881</ele>
        <time>2015-10-17T23:01:47Z</time>
      </trkpt>
      <trkpt lat="45.87256" lon="2.94955">
        <ele>883</ele>
        <time>2015-10-17T23:03:47Z</time>
      </trkpt>
      <trkpt lat="45.87226" lon="2.94983">
        <ele>884</ele>
        <time>2015-10-17T23:05:47Z</time>
      </trkpt>
      <trkpt lat="45.87205" lon="2.95009">
        <ele>886</ele>
        <time>2015-10-17T23:07:47Z</time>
      </trkpt>
      <trkpt lat="45.87159" lon="2.9506">
        <ele>890</ele>
        <time>2015-10-17T23:09:47Z</time>
      </trkpt>
      <trkpt lat="45.87129" lon="2.95084">
        <ele>893</ele>
        <time>2015-10-17T23:11:47Z</time>
      </trkpt>
      <trkpt lat="45.87089" lon="2.95106">
        <ele>897</ele>
        <time>2015-10-17T23:13:47Z</time>
      </trkpt>
      <trkpt lat="45.87027" lon="2.95108">
        <ele>899</ele>
        <time>2015-10-17T23:15:47Z</time>
      </trkpt>
      <trkpt lat="45.87002" lon="2.95103">
        <ele>899</ele>
        <time>2015-10-17T23:17:47Z</time>
      </trkpt>
      <trkpt lat="45.86976" lon="2.95123">
        <ele>900</ele>
        <time>2015-10-17T23:19:47Z</time>
      </trkpt>
      <trkpt lat="45.86926" lon="2.95161">
        <ele>900</ele>
        <time>2015-10-17T23:21:47Z</time>
      </trkpt>
      <trkpt lat="45.86902" lon="2.95168">
        <ele>900</ele>
        <time>2015-10-17T23:23:47Z</time>
      </trkpt>
      <trkpt lat="45.86879" lon="2.95181">
        <ele>900</ele>
        <time>2015-10-17T23:25:47Z</time>
      </trkpt>
      <trkpt lat="45.86867" lon="2.95196">
        <ele>901</ele>
        <time>2015-10-17T23:27:47Z</time>
      </trkpt>
      <trkpt lat="45.86858" lon="2.95215">
        <ele>901</ele>
        <time>2015-10-17T23:29:47Z</time>
      </trkpt>
      <trkpt lat="45.86841" lon="2.95256">
        <ele>902</ele>
        <time>2015-10-17T23:31:47Z</time>
      </trkpt>
      <trkpt lat="45.86812" lon="2.95284">
        <ele>904</ele>
        <time>2015-10-17T23:33:47Z</time>
      </trkpt>
      <trkpt lat="45.86797" lon="2.95305">
        <ele>906</ele>
        <time>2015-10-17T23:35:47Z</time>
      </trkpt>
      <trkpt lat="45.86764" lon="2.95314">
        <ele>910</ele>
        <time>2015-10-17T23:37:47Z</time>
      </trkpt>
      <trkpt lat="45.86761" lon="2.9526">
        <ele>908</ele>
        <time>2015-10-17T23:39:47Z</time>
      </trkpt>
      <trkpt lat="45.86752" lon="2.95176">
        <ele>908</ele>
        <time>2015-10-17T23:41:47Z</time>
      </trkpt>
      <trkpt lat="45.86766" lon="2.95106">
        <ele>904</ele>
        <time>2015-10-17T23:43:47Z</time>
      </trkpt>
      <trkpt lat="45.86767" lon="2.95069">
        <ele>903</ele>
        <time>2015-10-17T23:45:47Z</time>
      </trkpt>
      <trkpt lat="45.86772" lon="2.95022">
        <ele>900</ele>
        <time>2015-10-17T23:47:47Z</time>
      </trkpt>
      <trkpt lat="45.86779" lon="2.94975">
        <ele>897</ele>
        <time>2015-10-17T23:49:47Z</time>
      </trkpt>
      <trkpt lat="45.86787" lon="2.94936">
        <ele>894</ele>
        <time>2015-10-17T23:51:47Z</time>
      </trkpt>
      <trkpt lat="45.86814" lon="2.94844">
        <ele>889</ele>
        <time>2015-10-17T23:53:47Z</time>
      </trkpt>
      <trkpt lat="45.868" lon="2.94764">
        <ele>886</ele>
        <time>2015-10-17T23:55:47Z</time>
      </trkpt>
      <trkpt lat="45.86793" lon="2.94685">
        <ele>884</ele>
        <time>2015-10-17T23:57:47Z</time>
      </trkpt>
      <trkpt lat="45.86787" lon="2.94603">
        <ele>879</ele>
        <time>2015-10-17T23:59:47Z</time>
      </trkpt>
      <trkpt lat="45.86793" lon="2.94563">
        <ele>876</ele>
        <time>2015-10-18T00:01:47Z</time>
      </trkpt>
      <trkpt lat="45.86758" lon="2.94533">
        <ele>874</ele>
        <time>2015-10-18T00:03:47Z</time>
      </trkpt>
      <trkpt lat="45.86702" lon="2.94498">
        <ele>872</ele>
        <time>2015-10-18T00:05:47Z</time>
      </trkpt>
      <trkpt lat="45.86664" lon="2.94468">
        <ele>873</ele>
        <time>2015-10-18T00:07:47Z</time>
      </trkpt>
      <trkpt lat="45.86636" lon="2.94438">
        <ele>871</ele>
        <time>2015-10-18T00:09:47Z</time>
      </trkpt>
      <trkpt lat="45.86604" lon="2.94397">
        <ele>869</ele>
        <time>2015-10-18T00:11:47Z</time>
      </trkpt>
      <trkpt lat="45.86575" lon="2.94365">
        <ele>867</ele>
        <time>2015-10-18T00:13:47Z</time>
      </trkpt>
      <trkpt lat="45.8654" lon="2.94314">
        <ele>867</ele>
        <time>2015-10-18T00:15:47Z</time>
      </trkpt>
      <trkpt lat="45.86501" lon="2.94254">
        <ele>868</ele>
        <time>2015-10-18T00:17:47Z</time>
      </trkpt>
      <trkpt lat="45.86474" lon="2.94211">
        <ele>871</ele>
        <time>2015-10-18T00:19:47Z</time>
      </trkpt>
      <trkpt lat="45.86445" lon="2.94174">
        <ele>874</ele>
        <time>2015-10-18T00:21:47Z</time>
      </trkpt>
      <trkpt lat="45.86391" lon="2.94101">
        <ele>872</ele>
        <time>2015-10-18T00:23:47Z</time>
      </trkpt>
      <trkpt lat="45.86353" lon="2.94054">
        <ele>870</ele>
        <time>2015-10-18T00:25:47Z</time>
      </trkpt>
      <trkpt lat="45.863" lon="2.9399">
        <ele>867</ele>
        <time>2015-10-18T00:27:47Z</time>
      </trkpt>
      <trkpt lat="45.86283" lon="2.93947">
        <ele>865</ele>
        <time>2015-10-18T00:29:47Z</time>
      </trkpt>
      <trkpt lat="45.86279" lon="2.93919">
        <ele>864</ele>
        <time>2015-10-18T00:31:47Z</time>
      </trkpt>
      <trkpt lat="45.86286" lon="2.93846">
        <ele>861</ele>
        <time>2015-10-18T00:33:47Z</time>
      </trkpt>
      <trkpt lat="45.86301" lon="2.9379">
        <ele>861</ele>
        <time>2015-10-18T00:35:47Z</time>
      </trkpt>
      <trkpt lat="45.86321" lon="2.93706">
        <ele>860</ele>
        <time>2015-10-18T00:37:47Z</time>
      </trkpt>
      <trkpt lat="45.86334" lon="2.93649">
        <ele>860</ele>
        <time>2015-10-18T00:39:47Z</time>
      </trkpt>
      <trkpt lat="45.86343" lon="2.93591">
        <ele>861</ele>
        <time>2015-10-18T00:41:47Z</time>
      </trkpt>
      <trkpt lat="45.86356" lon="2.9352">
        <ele>865</ele>
        <time>2015-10-18T00:43:47Z</time>
      </trkpt>
      <trkpt lat="45.86341" lon="2.93434">
        <ele>868</ele>
        <time>2015-10-18T00:45:47Z</time>
      </trkpt>
      <trkpt lat="45.86321" lon="2.93361">
        <ele>866</ele>
        <time>2015-10-18T00:47:47Z</time>
      </trkpt>
      <trkpt lat="45.86301" lon="2.93264">
        <ele>864</ele>
        <time>2015-10-18T00:49:47Z</time>
      </trkpt>
      <trkpt lat="45.86279" lon="2.93204">
        <ele>864</ele>
        <time>2015-10-18T00:51:47Z</time>
      </trkpt>
      <trkpt lat="45.86253" lon="2.93183">
        <ele>864</ele>
        <time>2015-10-18T00:53:47Z</time>
      </trkpt>
      <trkpt lat="45.86201" lon="2.93179">
        <ele>868</ele>
        <time>2015-10-18T00:55:47Z</time>
      </trkpt>
      <trkpt lat="45.8618" lon="2.93198">
        <ele>872</ele>
        <time>2015-10-18T00:57:47Z</time>
      </trkpt>
      <trkpt lat="45.86159" lon="2.93215">
        <ele>875</ele>
        <time>2015-10-18T00:59:47Z</time>
      </trkpt>
      <trkpt lat="45.86129" lon="2.93217">
        <ele>875</ele>
        <time>2015-10-18T01:01:47Z</time>
      </trkpt>
      <trkpt lat="45.86089" lon="2.93232">
        <ele>878</ele>
        <time>2015-10-18T01:03:47Z</time>
      </trkpt>
      <trkpt lat="45.86044" lon="2.93222">
        <ele>878</ele>
        <time>2015-10-18T01:05:47Z</time>
      </trkpt>
      <trkpt lat="45.86019" lon="2.93202">
        <ele>877</ele>
        <time>2015-10-18T01:07:47Z</time>
      </trkpt>
      <trkpt lat="45.86005" lon="2.93093">
        <ele>877</ele>
        <time>2015-10-18T01:09:47Z</time>
      </trkpt>
      <trkpt lat="45.8602" lon="2.93024">
        <ele>877</ele>
        <time>2015-10-18T01:11:47Z</time>
      </trkpt>
      <trkpt lat="45.86031" lon="2.92975">
        <ele>878</ele>
        <time>2015-10-18T01:13:47Z</time>
      </trkpt>
      <trkpt lat="45.86037" lon="2.92923">
        <ele>879</ele>
        <time>2015-10-18T01:15:47Z</time>
      </trkpt>
      <trkpt lat="45.8604" lon="2.92893">
        <ele>880</ele>
        <time>2015-10-18T01:17:47Z</time>
      </trkpt>
      <trkpt lat="45.86037" lon="2.9285">
        <ele>882</ele>
        <time>2015-10-18T01:19:47Z</time>
      </trkpt>
      <trkpt lat="45.86043" lon="2.9278">
        <ele>881</ele>
        <time>2015-10-18T01:21:47Z</time>
      </trkpt>
      <trkpt lat="45.86025" lon="2.92717">
        <ele>882</ele>
        <time>2015-10-18T01:23:47Z</time>
      </trkpt>
      <trkpt lat="45.86017" lon="2.92649">
        <ele>881</ele>
        <time>2015-10-18T01:25:47Z</time>
      </trkpt>
      <trkpt lat="45.86017" lon="2.92531">
        <ele>878</ele>
        <time>2015-10-18T01:27:47Z</time>
      </trkpt>
      <trkpt lat="45.8602" lon="2.9246">
        <ele>878</ele>
        <time>2015-10-18T01:29:47Z</time>
      </trkpt>
      <trkpt lat="45.86007" lon="2.92415">
        <ele>879</ele>
        <time>2015-10-18T01:31:47Z</time>
      </trkpt>
      <trkpt lat="45.85981" lon="2.9238">
        <ele>880</ele>
        <time>2015-10-18T01:33:47Z</time>
      </trkpt>
      <trkpt lat="45.85969" lon="2.9234">
        <ele>880</ele>
        <time>2015-10-18T01:35:47Z</time>
      </trkpt>
      <trkpt lat="45.85963" lon="2.92271">
        <ele>879</ele>
        <time>2015-10-18T01:37:47Z</time>
      </trkpt>
      <trkpt lat="45.85968" lon="2.92207">
        <ele>878</ele>
        <time>2015-10-18T01:39:47Z</time>
      </trkpt>
      <trkpt lat="45.85956" lon="2.92179">
        <ele>879</ele>
        <time>2015-10-18T01:41:47Z</time>
      </trkpt>
      <trkpt lat="45.85945" lon="2.92131">
        <ele>879</ele>
        <time>2015-10-18T01:43:47Z</time>
      </trkpt>
      <trkpt lat="45.8594" lon="2.92106">
        <ele>879</ele>
        <time>2015-10-18T01:45:47Z</time>
      </trkpt>
      <trkpt lat="45.85916" lon="2.92116">
        <ele>879</ele>
        <time>2015-10-18T01:47:47Z</time>
      </trkpt>
      <trkpt lat="45.85869" lon="2.92116">
        <ele>884</ele>
        <time>2015-10-18T01:49:47Z</time>
      </trkpt>
      <trkpt lat="45.85856" lon="2.92142">
        <ele>885</ele>
        <time>2015-10-18T01:51:47Z</time>
      </trkpt>
      <trkpt lat="45.85823" lon="2.92171">
        <ele>889</ele>
        <time>2015-10-18T01:53:47Z</time>
      </trkpt>
      <trkpt lat="45.85801" lon="2.92188">
        <ele>890</ele>
        <time>2015-10-18T01:55:47Z</time>
      </trkpt>
      <trkpt lat="45.85771" lon="2.92211">
        <ele>891</ele>
        <time>2015-10-18T01:57:47Z</time>
      </trkpt>
      <trkpt lat="45.8574" lon="2.92226">
        <ele>892</ele>
        <time>2015-10-18T01:59:47Z</time>
      </trkpt>
      <trkpt lat="45.85687" lon="2.92247">
        <ele>893</ele>
        <time>2015-10-18T02:01:47Z</time>
      </trkpt>
      <trkpt lat="45.85658" lon="2.92202">
        <ele>894</ele>
        <time>2015-10-18T02:03:47Z</time>
      </trkpt>
      <trkpt lat="45.85638" lon="2.92176">
        <ele>894</ele>
        <time>2015-10-18T02:05:47Z</time>
      </trkpt>
      <trkpt lat="45.85622" lon="2.9213">
        <ele>895</ele>
        <time>2015-10-18T02:07:47Z</time>
      </trkpt>
      <trkpt lat="45.85598" lon="2.92099">
        <ele>894</ele>
        <time>2015-10-18T02:09:47Z</time>
      </trkpt>
      <trkpt lat="45.85579" lon="2.92054">
        <ele>894</ele>
        <time>2015-10-18T02:11:47Z</time>
      </trkpt>
      <trkpt lat="45.85564" lon="2.92028">
        <ele>894</ele>
        <time>2015-10-18T02:13:47Z</time>
      </trkpt>
      <trkpt lat="45.8555" lon="2.91987">
        <ele>893</ele>
        <time>2015-10-18T02:15:47Z</time>
      </trkpt>
      <trkpt lat="45.8553" lon="2.91971">
        <ele>892</ele>
        <time>2015-10-18T02:17:47Z</time>
      </trkpt>
      <trkpt lat="45.85504" lon="2.91947">
        <ele>891</ele>
        <time>2015-10-18T02:19:47Z</time>
      </trkpt>
      <trkpt lat="45.85481" lon="2.91916">
        <ele>891</ele>
        <time>2015-10-18T02:21:47Z</time>
      </trkpt>
      <trkpt lat="45.85453" lon="2.91859">
        <ele>891</ele>
        <time>2015-10-18T02:23:47Z</time>
      </trkpt>
      <trkpt lat="45.85438" lon="2.91837">
        <ele>890</ele>
        <time>2015-10-18T02:25:47Z</time>
      </trkpt>
      <trkpt lat="45.85426" lon="2.91802">
        <ele>891</ele>
        <time>2015-10-18T02:27:47Z</time>
      </trkpt>
      <trkpt lat="45.85406" lon="2.91771">
        <ele>891</ele>
        <time>2015-10-18T02:29:47Z</time>
      </trkpt>
      <trkpt lat="45.85395" lon="2.91717">
        <ele>889</ele>
        <time>2015-10-18T02:31:47Z</time>
      </trkpt>
      <trkpt lat="45.85386" lon="2.91648">
        <ele>886</ele>
        <time>2015-10-18T02:33:47Z</time>
      </trkpt>
      <trkpt lat="45.85388" lon="2.91605">
        <ele>886</ele>
        <time>2015-10-18T02:35:47Z</time>
      </trkpt>
      <trkpt lat="45.85351" lon="2.91583">
        <ele>886</ele>
        <time>2015-10-18T02:37:47Z</time>
      </trkpt>
      <trkpt lat="45.8532" lon="2.91531">
        <ele>886</ele>
        <time>2015-10-18T02:39:47Z</time>
      </trkpt>
      <trkpt lat="45.85275" lon="2.9144">
        <ele>884</ele>
        <time>2015-10-18T02:41:47Z</time>
      </trkpt>
      <trkpt lat="45.85252" lon="2.91407">
        <ele>883</ele>
        <time>2015-10-18T02:43:47Z</time>
      </trkpt>
      <trkpt lat="45.85253" lon="2.91347">
        <ele>881</ele>
        <time>2015-10-18T02:45:47Z</time>
      </trkpt>
      <trkpt lat="45.85238" lon="2.91321">
        <ele>880</ele>
        <time>2015-10-18T02:47:47Z</time>
      </trkpt>
      <trkpt lat="45.85214" lon="2.91333">
        <ele>880</ele>
        <time>2015-10-18T02:49:47Z</time>
      </trkpt>
      <trkpt lat="45.85172" lon="2.91371">
        <ele>880</ele>
        <time>2015-10-18T02:51:47Z</time>
      </trkpt>
      <trkpt lat="45.8515" lon="2.91407">
        <ele>881</ele>
        <time>2015-10-18T02:53:47Z</time>
      </trkpt>
      <trkpt lat="45.85129" lon="2.91438">
        <ele>881</ele>
        <time>2015-10-18T02:55:47Z</time>
      </trkpt>
      <trkpt lat="45.85057" lon="2.91486">
        <ele>880</ele>
        <time>2015-10-18T02:57:47Z</time>
      </trkpt>
      <trkpt lat="45.85028" lon="2.91517">
        <ele>879</ele>
        <time>2015-10-18T02:59:47Z</time>
      </trkpt>
      <trkpt lat="45.85019" lon="2.91605">
        <ele>880</ele>
        <time>2015-10-18T03:01:47Z</time>
      </trkpt>
      <trkpt lat="45.84998" lon="2.91664">
        <ele>881</ele>
        <time>2015-10-18T03:03:47Z</time>
      </trkpt>
      <trkpt lat="45.84968" lon="2.91706">
        <ele>882</ele>
        <time>2015-10-18T03:05:47Z</time>
      </trkpt>
      <trkpt lat="45.8493" lon="2.91734">
        <ele>882</ele>
        <time>2015-10-18T03:07:47Z</time>
      </trkpt>
      <trkpt lat="45.84904" lon="2.91792">
        <ele>882</ele>
        <time>2015-10-18T03:09:47Z</time>
      </trkpt>
      <trkpt lat="45.84879" lon="2.91873">
        <ele>880</ele>
        <time>2015-10-18T03:11:47Z</time>
      </trkpt>
      <trkpt lat="45.8487" lon="2.91932">
        <ele>881</ele>
        <time>2015-10-18T03:13:47Z</time>
      </trkpt>
      <trkpt lat="45.84856" lon="2.91987">
        <ele>882</ele>
        <time>2015-10-18T03:15:47Z</time>
      </trkpt>
      <trkpt lat="45.84816" lon="2.92018">
        <ele>883</ele>
        <time>2015-10-18T03:17:47Z</time>
      </trkpt>
      <trkpt lat="45.84786" lon="2.92044">
        <ele>884</ele>
        <time>2015-10-18T03:19:47Z</time>
      </trkpt>
      <trkpt lat="45.84748" lon="2.9208">
        <ele>885</ele>
        <time>2015-10-18T03:21:47Z</time>
      </trkpt>
      <trkpt lat="45.84719" lon="2.92113">
        <ele>885</ele>
        <time>2015-10-18T03:23:47Z</time>
      </trkpt>
      <trkpt lat="45.84696" lon="2.92152">
        <ele>886</ele>
        <time>2015-10-18T03:25:47Z</time>
      </trkpt>
      <trkpt lat="45.84663" lon="2.9219">
        <ele>886</ele>
        <time>2015-10-18T03:27:47Z</time>
      </trkpt>
      <trkpt lat="45.84631" lon="2.92249">
        <ele>887</ele>
        <time>2015-10-18T03:29:47Z</time>
      </trkpt>
      <trkpt lat="45.84604" lon="2.92304">
        <ele>887</ele>
        <time>2015-10-18T03:31:47Z</time>
      </trkpt>
      <trkpt lat="45.84563" lon="2.92371">
        <ele>885</ele>
        <time>2015-10-18T03:33:47Z</time>
      </trkpt>
      <trkpt lat="45.84528" lon="2.92418">
        <ele>882</ele>
        <time>2015-10-18T03:35:47Z</time>
      </trkpt>
      <trkpt lat="45.84496" lon="2.92471">
        <ele>880</ele>
        <time>2015-10-18T03:37:47Z</time>
      </trkpt>
      <trkpt lat="45.84457" lon="2.92516">
        <ele>878</ele>
        <time>2015-10-18T03:39:47Z</time>
      </trkpt>
      <trkpt lat="45.84413" lon="2.92542">
        <ele>876</ele>
        <time>2015-10-18T03:41:47Z</time>
      </trkpt>
      <trkpt lat="45.8438" lon="2.9253">
        <ele>876</ele>
        <time>2015-10-18T03:43:47Z</time>
      </trkpt>
      <trkpt lat="45.84335" lon="2.92514">
        <ele>876</ele>
        <time>2015-10-18T03:45:47Z</time>
      </trkpt>
      <trkpt lat="45.84304" lon="2.92509">
        <ele>877</ele>
        <time>2015-10-18T03:47:47Z</time>
      </trkpt>
      <trkpt lat="45.84279" lon="2.92545">
        <ele>877</ele>
        <time>2015-10-18T03:49:47Z</time>
      </trkpt>
      <trkpt lat="45.84259" lon="2.92576">
        <ele>876</ele>
        <time>2015-10-18T03:51:47Z</time>
      </trkpt>
      <trkpt lat="45.84227" lon="2.92647">
        <ele>877</ele>
        <time>2015-10-18T03:53:47Z</time>
      </trkpt>
      <trkpt lat="45.84196" lon="2.927">
        <ele>879</ele>
        <time>2015-10-18T03:55:47Z</time>
      </trkpt>
      <trkpt lat="45.84154" lon="2.92745">
        <ele>881</ele>
        <time>2015-10-18T03:57:47Z</time>
      </trkpt>
      <trkpt lat="45.84118" lon="2.92757">
        <ele>882</ele>
        <time>2015-10-18T03:59:47Z</time>
      </trkpt>
      <trkpt lat="45.84088" lon="2.92838">
        <ele>885</ele>
        <time>2015-10-18T04:01:47Z</time>
      </trkpt>
      <trkpt lat="45.84096" lon="2.92895">
        <ele>890</ele>
        <time>2015-10-18T04:03:47Z</time>
      </trkpt>
      <trkpt lat="45.84126" lon="2.92953">
        <ele>894</ele>
        <time>2015-10-18T04:05:47Z</time>
      </trkpt>
    </trkseg>
  </trk>
</gpx>